TimeEDT,TemperatureF,Dew PointF,Humidity,Sea Level PressureIn,VisibilityMPH,Wind Direction,Wind SpeedMPH,Gust SpeedMPH,PrecipitationIn,Events,Conditions,WindDirDegrees,DateUTC
12:15 AM,53.6,42.8,67,30.32,10.0,Calm,Calm,-,N/A,,Clear,0,2013-05-25 04:15:00
12:35 AM,51.8,44.6,76,30.32,10.0,Calm,Calm,-,N/A,,Clear,0,2013-05-25 04:35:00
12:55 AM,51.8,44.6,76,30.32,10.0,Calm,Calm,-,N/A,,Clear,0,2013-05-25 04:55:00
1:15 AM,50.0,44.6,82,30.33,10.0,Calm,Calm,-,N/A,,Clear,0,2013-05-25 05:15:00
1:35 AM,48.2,44.6,87,30.34,10.0,Calm,Calm,-,N/A,,Clear,0,2013-05-25 05:35:00
1:55 AM,48.2,42.8,82,30.34,10.0,Calm,Calm,-,N/A,,Clear,0,2013-05-25 05:55:00
2:15 AM,48.2,44.6,87,30.33,10.0,Calm,Calm,-,N/A,,Clear,0,2013-05-25 06:15:00
2:35 AM,48.2,44.6,87,30.32,10.0,Calm,Calm,-,N/A,,Clear,0,2013-05-25 06:35:00
2:55 AM,48.2,44.6,87,30.32,10.0,Calm,Calm,-,N/A,,Clear,0,2013-05-25 06:55:00
3:15 AM,48.2,44.6,87,30.31,9.0,Calm,Calm,-,N/A,,Clear,0,2013-05-25 07:15:00
3:35 AM,48.2,44.6,87,30.32,9.0,Calm,Calm,-,N/A,,Clear,0,2013-05-25 07:35:00
3:55 AM,46.4,42.8,87,30.32,7.0,Calm,Calm,-,N/A,,Clear,0,2013-05-25 07:55:00
4:15 AM,46.4,42.8,87,30.31,8.0,Calm,Calm,-,N/A,,Clear,0,2013-05-25 08:15:00
4:35 AM,46.4,42.8,87,30.30,9.0,ESE,3.5,-,N/A,,Clear,110,2013-05-25 08:35:00
4:55 AM,46.4,42.8,87,30.30,7.0,Calm,Calm,-,N/A,,Clear,0,2013-05-25 08:55:00
5:15 AM,46.4,42.8,87,30.30,10.0,NNE,4.6,-,N/A,,Clear,20,2013-05-25 09:15:00
5:35 AM,44.6,41.0,87,30.30,10.0,Calm,Calm,-,N/A,,Clear,0,2013-05-25 09:35:00
5:55 AM,46.4,42.8,87,30.30,10.0,Calm,Calm,-,N/A,,Clear,0,2013-05-25 09:55:00
6:15 AM,44.6,41.0,87,30.31,10.0,Calm,Calm,-,N/A,,Clear,0,2013-05-25 10:15:00
6:35 AM,44.6,39.2,81,30.31,10.0,ESE,5.8,-,N/A,,Clear,120,2013-05-25 10:35:00
6:55 AM,46.4,41.0,81,30.32,10.0,SE,4.6,-,N/A,,Clear,130,2013-05-25 10:55:00
7:15 AM,46.4,42.8,87,30.32,10.0,Calm,Calm,-,N/A,,Clear,0,2013-05-25 11:15:00
7:35 AM,51.8,44.6,76,30.33,10.0,SE,4.6,-,N/A,,Clear,130,2013-05-25 11:35:00
7:55 AM,51.8,44.6,76,30.34,10.0,Calm,Calm,-,N/A,,Clear,0,2013-05-25 11:55:00
8:15 AM,51.8,44.6,76,30.35,10.0,Calm,Calm,-,N/A,,Clear,0,2013-05-25 12:15:00
8:35 AM,51.8,44.6,76,30.35,10.0,Calm,Calm,-,N/A,,Clear,0,2013-05-25 12:35:00
8:55 AM,53.6,44.6,72,30.36,10.0,Calm,Calm,-,N/A,,Clear,0,2013-05-25 12:55:00
9:15 AM,53.6,46.4,77,30.37,10.0,Calm,Calm,-,N/A,,Clear,0,2013-05-25 13:15:00
9:35 AM,55.4,44.6,67,30.38,10.0,Calm,Calm,-,N/A,,Clear,0,2013-05-25 13:35:00
10:35 AM,60.8,48.2,63,30.39,10.0,Calm,Calm,-,N/A,,Clear,0,2013-05-25 14:35:00
10:55 AM,62.6,44.6,52,30.39,10.0,Calm,Calm,-,N/A,,Clear,0,2013-05-25 14:55:00
11:15 AM,64.4,46.4,52,30.38,10.0,South,3.5,-,N/A,,Clear,190,2013-05-25 15:15:00
11:35 AM,64.4,44.6,49,30.37,10.0,Calm,Calm,-,N/A,,Clear,0,2013-05-25 15:35:00
11:55 AM,66.2,42.8,43,30.36,10.0,Calm,Calm,-,N/A,,Clear,0,2013-05-25 15:55:00
12:15 PM,66.2,42.8,43,30.36,10.0,Calm,Calm,-,N/A,,Clear,0,2013-05-25 16:15:00
12:35 PM,68.0,44.6,43,30.35,10.0,ENE,6.9,-,N/A,,Clear,70,2013-05-25 16:35:00
12:55 PM,66.2,42.8,43,30.35,10.0,NE,3.5,-,N/A,,Clear,40,2013-05-25 16:55:00
1:15 PM,69.8,42.8,38,30.35,10.0,Calm,Calm,-,N/A,,Clear,0,2013-05-25 17:15:00
1:35 PM,69.8,41.0,35,30.35,10.0,ESE,4.6,-,N/A,,Clear,120,2013-05-25 17:35:00
1:55 PM,69.8,41.0,35,30.35,10.0,ENE,3.5,-,N/A,,Clear,70,2013-05-25 17:55:00
2:15 PM,69.8,39.2,33,30.35,10.0,NW,3.5,-,N/A,,Clear,310,2013-05-25 18:15:00
2:35 PM,69.8,42.8,38,30.34,10.0,North,4.6,-,N/A,,Clear,360,2013-05-25 18:35:00
2:55 PM,69.8,44.6,40,30.33,10.0,Calm,Calm,-,N/A,,Clear,0,2013-05-25 18:55:00
3:15 PM,69.8,44.6,40,30.32,10.0,NE,3.5,-,N/A,,Clear,50,2013-05-25 19:15:00
3:35 PM,69.8,44.6,40,30.32,10.0,North,3.5,-,N/A,,Clear,10,2013-05-25 19:35:00
3:55 PM,69.8,44.6,40,30.31,10.0,NW,4.6,-,N/A,,Clear,320,2013-05-25 19:55:00
4:15 PM,69.8,44.6,40,30.31,10.0,NNE,5.8,-,N/A,,Clear,30,2013-05-25 20:15:00
4:35 PM,69.8,46.4,43,30.29,9.0,ENE,8.1,-,N/A,,Clear,60,2013-05-25 20:35:00
4:55 PM,68.0,44.6,43,30.29,10.0,NE,5.8,-,N/A,,Clear,50,2013-05-25 20:55:00
5:15 PM,68.0,46.4,46,30.29,10.0,NE,6.9,-,N/A,,Clear,50,2013-05-25 21:15:00
5:35 PM,66.2,46.4,49,30.29,10.0,NNE,6.9,-,N/A,,Partly Cloudy,30,2013-05-25 21:35:00
5:55 PM,66.2,46.4,49,30.29,10.0,NNE,8.1,-,N/A,,Mostly Cloudy,30,2013-05-25 21:55:00
6:15 PM,64.4,48.2,56,30.24,10.0,ENE,9.2,-,N/A,,Partly Cloudy,70,2013-05-25 22:15:00
6:35 PM,64.4,48.2,56,30.23,10.0,East,8.1,-,N/A,,Clear,80,2013-05-25 22:35:00
6:55 PM,66.2,48.2,52,30.21,10.0,East,12.7,-,N/A,,Clear,100,2013-05-25 22:55:00
7:15 PM,66.2,46.4,49,30.21,10.0,East,9.2,-,N/A,,Clear,90,2013-05-25 23:15:00
7:55 PM,64.4,46.4,52,30.21,10.0,ENE,4.6,-,N/A,,Clear,60,2013-05-25 23:55:00
8:15 PM,64.4,48.2,56,30.22,10.0,NE,5.8,-,N/A,,Clear,50,2013-05-26 00:15:00
8:35 PM,62.6,48.2,59,30.23,10.0,NNE,9.2,-,N/A,,Mostly Cloudy,20,2013-05-26 00:35:00
8:55 PM,62.6,48.2,59,30.22,10.0,NE,9.2,-,N/A,,Mostly Cloudy,40,2013-05-26 00:55:00
9:15 PM,62.6,46.4,55,30.22,10.0,NE,8.1,-,N/A,,Scattered Clouds,40,2013-05-26 01:15:00
9:35 PM,62.6,46.4,55,30.24,10.0,NNE,9.2,-,N/A,,Mostly Cloudy,30,2013-05-26 01:35:00
9:55 PM,60.8,46.4,59,30.24,10.0,NE,8.1,-,N/A,,Mostly Cloudy,40,2013-05-26 01:55:00
10:35 PM,59.0,46.4,63,30.25,10.0,NNE,9.2,-,N/A,,Mostly Cloudy,30,2013-05-26 02:35:00
10:55 PM,59.0,46.4,63,30.26,10.0,NNE,9.2,-,N/A,,Mostly Cloudy,30,2013-05-26 02:55:00
11:15 PM,59.0,46.4,63,30.26,10.0,NE,9.2,-,N/A,,Mostly Cloudy,50,2013-05-26 03:15:00
11:35 PM,59.0,46.4,63,30.27,10.0,NE,11.5,-,N/A,,Mostly Cloudy,50,2013-05-26 03:35:00